Rochester/St. Mary\'s Hospita, MN

12:27 AM CDT on June 25, 2017 (GMT -0500)
Rochester/St. Mary\'s Hospita

Weather History for K9MN - December, 2013

Change the Weather History Date:

Tuesday, December 31, 2013

  Actual Average (KRST) Record (KRST)
Temperature  
Mean Temperature -3 °F -  
Max Temperature 1 °F 19 °F 49 °F (1965)
Min Temperature -7 °F 4 °F -28 °F (1946)
Degree Days  
Heating Degree Days 68    
Moisture  
Dew Point -8 °F    
Average Humidity 77    
Maximum Humidity 83    
Minimum Humidity 66    
Precipitation  
Precipitation 0.00 in - - ()
Sea Level Pressure  
Sea Level Pressure 30.24 in    
Wind  
Wind Speed 5 mph (NW)    
Max Wind Speed 10 mph    
Max Gust Speed -    
Visibility 9 miles    
Events      
Averages and records for this station are not official NWS values.
T = Trace of Precipitation, MM = Missing Value Source: NWS Daily Summary

Daily Weather History Graph

Daily Weather History Graph

Search for Another Location

Airport or City:

Trip Planner

Search our weather history database for the weather conditions in past years. The results will help you decide how hot, cold, wet, or windy it might be!

Date:

Astronomy

Dec. 31, 2013 Rise Set
Actual Time 7:44 AM CST 4:41 PM CST
Civil Twilight 7:11 AM CST 5:14 PM CST
Nautical Twilight 6:35 AM CST 5:51 PM CST
Astronomical Twilight 6:00 AM CST 6:26 PM CST
Moon 6:36 AM CST (12/31) 4:19 PM CST (12/31)
Length of Visible Light 10h 02m
Length of Day
8h 57m
Waning Crescent, 1% of the Moon is Illuminated
Dec 31
Waning Crescent
Jan 1
New
Jan 7
First Quarter
Jan 15
Full
Jan 23
Last Quarter

Hourly Weather History & Observations

Time (CST) Temp. Windchill Dew Point Humidity Pressure Visibility Wind Dir Wind Speed Gust Speed Precip Events Conditions
12:12 AM 0.5 °F -7.3 °F -4.0 °F 81% 30.15 in 10.0 mi West 3.5 mph - N/A   Mostly Cloudy
12:33 AM -0.6 °F -10.6 °F -4.9 °F 82% 30.14 in 7.0 mi WSW 4.6 mph - N/A   Clear
12:53 AM -1.1 °F -12.9 °F -5.3 °F 83% 30.14 in 10.0 mi West 5.8 mph - N/A   Clear
1:12 AM -1.3 °F -13.1 °F -5.3 °F 83% 30.14 in 10.0 mi WSW 5.8 mph - N/A   Clear
1:33 AM -2.4 °F -18.2 °F -6.5 °F 82% 30.14 in 10.0 mi West 9.2 mph - N/A   Clear
1:53 AM -1.7 °F -13.5 °F -5.8 °F 83% 30.15 in 10.0 mi West 5.8 mph - N/A   Clear
2:13 AM -0.9 °F -14.1 °F -4.9 °F 83% 30.15 in 10.0 mi West 6.9 mph - N/A   Clear
2:33 AM -2.2 °F -14.2 °F -6.2 °F 83% 30.15 in 10.0 mi West 5.8 mph - N/A   Clear
2:53 AM -2.6 °F -17.3 °F -6.9 °F 82% 30.16 in 10.0 mi West 8.1 mph - N/A   Clear
3:13 AM -2.7 °F -18.6 °F -7.1 °F 82% 30.18 in 10.0 mi West 9.2 mph - N/A   Clear
3:33 AM -3.3 °F -18.2 °F -7.6 °F 82% 30.18 in 10.0 mi West 8.1 mph - N/A   Clear
3:53 AM -3.3 °F -18.2 °F -7.8 °F 81% 30.18 in 10.0 mi West 8.1 mph - N/A   Clear
4:13 AM -4.0 °F -21.2 °F -8.5 °F 81% 30.19 in 10.0 mi WNW 10.4 mph - N/A   Mostly Cloudy
4:33 AM -4.2 °F -19.3 °F -8.7 °F 81% 30.19 in 10.0 mi West 8.1 mph - N/A   Overcast
4:53 AM -4.2 °F -14.8 °F -9.0 °F 80% 30.18 in 10.0 mi NW 4.6 mph - N/A   Mostly Cloudy
5:13 AM -4.9 °F -17.4 °F -9.6 °F 80% 30.18 in 10.0 mi WNW 5.8 mph - N/A   Mostly Cloudy
5:33 AM -4.4 °F -18.2 °F -8.7 °F 82% 30.18 in 10.0 mi WNW 6.9 mph - N/A   Overcast
5:53 AM -4.2 °F -18.0 °F -8.7 °F 81% 30.18 in 10.0 mi WNW 6.9 mph - N/A   Overcast
6:13 AM -3.8 °F -18.8 °F -8.3 °F 81% 30.18 in 10.0 mi WNW 8.1 mph - N/A   Overcast
6:33 AM -3.6 °F -17.3 °F -8.3 °F 80% 30.18 in 10.0 mi WNW 6.9 mph - N/A   Overcast
6:53 AM -4.0 °F -19.0 °F -8.9 °F 80% 30.19 in 10.0 mi WNW 8.1 mph - N/A   Overcast
7:13 AM -4.4 °F -16.7 °F -8.7 °F 82% 30.20 in 10.0 mi West 5.8 mph - N/A   Mostly Cloudy
7:33 AM -3.5 °F -15.7 °F -8.0 °F 81% 30.22 in 10.0 mi West 5.8 mph - N/A   Mostly Cloudy
7:53 AM -4.0 °F -17.8 °F -9.0 °F 79% 30.23 in 10.0 mi WSW 6.9 mph - N/A   Scattered Clouds
8:13 AM -4.0 °F -14.6 °F -8.5 °F 81% 30.24 in 10.0 mi West 4.6 mph - N/A   Mostly Cloudy
8:33 AM -3.5 °F -13.9 °F -8.1 °F 80% 30.24 in 10.0 mi West 4.6 mph - N/A   Overcast
8:52 AM -3.8 °F -16.1 °F -8.7 °F 80% 30.24 in 10.0 mi West 5.8 mph - N/A   Overcast
9:13 AM -2.4 °F -12.7 °F -7.2 °F 80% 30.25 in 10.0 mi WNW 4.6 mph - N/A   Overcast
9:33 AM -3.3 °F -11.6 °F -8.0 °F 80% 30.26 in 10.0 mi WNW 3.5 mph - N/A   Overcast
9:52 AM -2.4 °F -10.6 °F -7.1 °F 80% 30.27 in 10.0 mi West 3.5 mph - N/A   Overcast
10:13 AM -0.9 °F -11.0 °F -5.3 °F 82% 30.28 in 10.0 mi West 4.6 mph - N/A   Overcast
10:33 AM -1.8 °F -9.9 °F -6.7 °F 80% 30.28 in 10.0 mi NW 3.5 mph - N/A   Overcast
10:53 AM -1.1 °F -11.2 °F -5.4 °F 82% 30.28 in 10.0 mi WNW 4.6 mph - N/A   Overcast
11:13 AM -1.3 °F -13.1 °F -6.2 °F 80% 30.28 in 10.0 mi WNW 5.8 mph - N/A   Overcast
11:33 AM -1.3 °F - -6.0 °F 81% 30.27 in 10.0 mi Calm Calm - N/A   Overcast
11:53 AM -0.2 °F -10.1 °F -4.9 °F 81% 30.25 in 10.0 mi WNW 4.6 mph - N/A   Overcast
12:13 PM -0.0 °F -9.9 °F -4.7 °F 81% 30.25 in 7.0 mi NW 4.6 mph - N/A   Overcast
12:33 PM 0.5 °F -9.3 °F -4.2 °F 81% 30.25 in 4.0 mi North 4.6 mph - N/A   Overcast
12:53 PM -0.0 °F -9.9 °F -5.3 °F 79% 30.25 in 2.5 mi North 4.6 mph - N/A   Overcast
1:13 PM 0.5 °F -7.3 °F -5.6 °F 75% 30.25 in 4.0 mi NW 3.5 mph - N/A   Overcast
1:33 PM 0.7 °F -7.1 °F -5.6 °F 75% 30.24 in 1.8 mi NW 3.5 mph - N/A   Overcast
1:53 PM 0.5 °F - -6.0 °F 74% 30.24 in 2.5 mi Calm Calm - N/A   Overcast
2:13 PM 0.5 °F -9.3 °F -6.5 °F 72% 30.24 in 2.5 mi NW 4.6 mph - N/A   Overcast
2:33 PM 0.7 °F -7.1 °F -6.2 °F 73% 30.24 in 2.0 mi NW 3.5 mph - N/A   Overcast
2:53 PM 0.5 °F -7.3 °F -6.2 °F 74% 30.24 in 2.0 mi NW 3.5 mph - N/A   Overcast
3:13 PM 0.7 °F -7.1 °F -5.6 °F 75% 30.24 in 2.5 mi NW 3.5 mph - N/A   Overcast
3:33 PM 1.0 °F -6.7 °F -4.9 °F 76% 30.24 in 2.5 mi NNW 3.5 mph - N/A   Overcast
3:53 PM 1.0 °F - -4.9 °F 76% 30.25 in 2.0 mi Calm Calm - N/A   Overcast
4:13 PM 1.2 °F - -4.4 °F 77% 30.26 in 2.5 mi Calm Calm - N/A   Overcast
4:33 PM 1.2 °F -6.4 °F -4.7 °F 76% 30.26 in 7.0 mi North 3.5 mph - N/A   Overcast
4:53 PM 1.2 °F -6.4 °F -6.2 °F 71% 30.27 in 10.0 mi NW 3.5 mph - N/A   Overcast
5:13 PM 0.9 °F -6.9 °F -7.6 °F 68% 30.28 in 10.0 mi NNE 3.5 mph - N/A   Overcast
5:33 PM 0.5 °F -7.3 °F -8.0 °F 68% 30.28 in 10.0 mi NNW 3.5 mph - N/A   Overcast
5:53 PM 0.9 °F -6.9 °F -8.1 °F 66% 30.28 in 10.0 mi North 3.5 mph - N/A   Overcast
5:59 PM 0.5 °F -11.0 °F -8.0 °F 68% 30.28 in 10.0 mi North 5.8 mph - N/A   Overcast
6:33 PM 1.2 °F -6.4 °F -7.6 °F 67% 30.29 in 10.0 mi North 3.5 mph - N/A   Overcast
6:53 PM 0.3 °F -9.5 °F -8.0 °F 68% 30.30 in 10.0 mi North 4.6 mph - N/A   Overcast
7:13 PM -0.0 °F - -7.8 °F 70% 30.31 in 10.0 mi Calm Calm - N/A   Mostly Cloudy
7:33 PM -0.6 °F -12.2 °F -8.3 °F 70% 30.31 in 10.0 mi North 5.8 mph - N/A   Mostly Cloudy
7:53 PM -0.8 °F -10.8 °F -8.1 °F 71% 30.31 in 10.0 mi North 4.6 mph - N/A   Scattered Clouds
8:13 PM -2.0 °F -12.2 °F -9.2 °F 71% 30.31 in 10.0 mi North 4.6 mph - N/A   Clear
8:33 PM -2.6 °F -12.9 °F -9.4 °F 73% 30.31 in 10.0 mi NNE 4.6 mph - N/A   Clear
8:53 PM -3.5 °F -13.9 °F -10.7 °F 71% 30.31 in 10.0 mi NNE 4.6 mph - N/A   Clear
9:13 PM -4.0 °F -12.4 °F -11.6 °F 70% 30.32 in 10.0 mi North 3.5 mph - N/A   Clear
9:33 PM -4.4 °F -16.7 °F -11.9 °F 70% 30.33 in 10.0 mi North 5.8 mph - N/A   Clear
9:53 PM -5.3 °F -16.0 °F -12.5 °F 71% 30.33 in 10.0 mi North 4.6 mph - N/A   Clear
10:13 PM -6.0 °F -16.9 °F -13.2 °F 71% 30.32 in 10.0 mi NNE 4.6 mph - N/A   Clear
10:33 PM -6.5 °F -17.5 °F -13.5 °F 72% 30.32 in 10.0 mi NNE 4.6 mph - N/A   Clear
10:53 PM -6.7 °F -19.5 °F -13.7 °F 72% 30.32 in 10.0 mi NNE 5.8 mph - N/A   Clear
11:13 PM -6.9 °F -21.2 °F -13.7 °F 72% 30.32 in 10.0 mi NNE 6.9 mph - N/A   Clear
11:33 PM -7.1 °F -15.9 °F -13.7 °F 73% 30.31 in 10.0 mi NNE 3.5 mph - N/A   Clear
11:53 PM -7.1 °F -18.1 °F -13.9 °F 72% 30.31 in 10.0 mi NNE 4.6 mph - N/A   Mostly Cloudy